Location: Moscow
(55.7500°N, 37.5830°E)
Time: 10:32:49
(UTC+03:00)

Vanguard 3 - Pass Details

Date: 03 December 2021
Orbit: 508 x 3260 km, 33.3° (Epoch: 19 January)

Event Time Altitude Azimuth Distance (km) Brightness Sun altitude
Rises 04:15:41 0° 218° (SW) 7,142 - -35.4°
Reaches altitude 10° 04:21:41 10° 208° (SSW) 6,194 - -34.6°
Exits shadow 04:22:42 12° 206° (SSW) 6,040 11.2 -34.4°
Maximum altitude 04:35:55 26° 162° (SSE) 4,645 11.0 -32.6°
Drops below altitude 10° 04:47:47 10° 114° (ESE) 5,132 11.9 -30.9°
Sets 04:52:05 0° 102° (ESE) 5,757 12.5 -30.3°
